カタログに戻る

COSMOS 1275 DEB

運用中PO
NORAD 12727·DEBRIS·🇷🇺 Russia

打ち上げ Jun 4, 1981 から Plesetsk Cosmodrome

Loading…

次のパス (今後24時間)

TLE

最新Source: Space-Track

元期: Sep 14, 2026, 10:23 UTC

1 12727U 81053BU  26257.43282214  .00001339  00000-0  96687-3 0  9999
2 12727  83.2867 310.5094 0088349 205.6038 168.1516 13.94144522270713

AllMySatでCOSMOS 1275 DEBをリアルタイム追跡

Download on the App Store